Temperature
5 5 4 4 4 4 4 4 4 4 4 4 4 4 4 5 5 5 5 4 4 4 4 4 5 4 4 4 4 4 4 4 4 4 4 4 4 4 4 4 4 4 4
4 4 4 4 4 3 3 3 3 3 4 4 4 4 4 4 4 4 4 4 4 4 4 4 4 4 4 4 4 4 4 4 4 3 4 4 4 4 4 4 4 4 4
3 3 3 3 3 3 3 3 3 3 3 3 3 3 3 3 3 3 3 3 3 3 3 3 3 3 3 3 3 3 3 3 3 3 3 3 3 3 3 3 3 3 3
3 3 3 3 2 2 2 2 2 2 2 2 2 3 3 3 3 3 3 3 3 3 3 3 3 3 3 3 3 3 3 3 2 2 2 2 2 2 2 2 2 2 2
2 2 2 2 2 2 2 2 2 2 2 2 2 2 2 2 2 2 2 2 2 2 2 2 2 2 3 2 2 2 2 2 2 2 2 2 1 1 1 1 1 2 2
1 1 1 1 1 1 1 1 1 1 1 1 1 1 2 1 2 2 2 2 2 2 2 2 2 2 2 2 2 2 2 2 2 2 2 1 1 1 1 1 1 1 1
1 1 1 1 1 0 0 0 0 1 1 1 1 1 1 1 1 1 1 1 1 1 1 2 2 2 2 2 2 2 2 2 1 1 1 1 1 1 1 0 0 0 0
1 0 0 0 0 -0 -0 -0 -0 0 0 0 0 0 1 1 1 1 1 1 1 1 1 1 1 1 1 1 1 1 1 1 1 1 1 1 1 0 0 0 -0 -0 -0
0 0 -0 -0 -0 -0 -0 -0 -0 -0 -0 0 0 0 0 0 0 0 0 0 0 0 0 1 0 1 1 1 1 1 1 1 1 0 0 0 0 0 -0 -0 -1 -1 -1
-0 -0 -0 -1 -1 -1 -1 -1 -1 -1 -0 -0 -0 -0 -0 0 0 0 -0 -0 -0 -0 0 -0 -0 0 0 0 0 -0 -0 -0 -0 -0 -0 -0 -0 -0 -1 -1 -1 -1 -2
-0 -1 -1 -1 -1 -1 -1 -1 -1 -1 -1 -1 -0 -0 -0 -0 -0 -0 -1 -1 -1 -0 -0 -0 -0 -0 -0 -0 -0 -1 -1 -1 -1 -1 -1 -1 -1 -1 -1 -1 -1 -1 -2
-1 -1 -1 -1 -1 -1 -1 -1 -1 -1 -1 -1 -1 -1 -1 -1 -1 -1 -1 -1 -1 -1 -1 -1 -1 -1 -1 -1 -1 -1 -1 -1 -1 -1 -2 -2 -2 -2 -2 -2 -2 -2 -2
-1 -2 -1 -1 -1 -1 -1 -1 -1 -2 -2 -2 -2 -2 -1 -1 -1 -1 -1 -1 -1 -1 -1 -2 -2 -2 -2 -2 -2 -2 -2 -2 -2 -2 -2 -2 -2 -2 -2 -2 -2 -2 -2
-2 -2 -2 -2 -1 -1 -2 -2 -2 -2 -2 -2 -2 -2 -2 -2 -2 -2 -2 -2 -2 -2 -2 -2 -2 -2 -2 -2 -2 -2 -2 -2 -2 -3 -3 -3 -3 -3 -3 -3 -3 -3 -3
-2 -2 -2 -2 -2 -2 -2 -2 -2 -2 -3 -3 -3 -3 -3 -3 -3 -3 -2 -2 -2 -3 -3 -3 -3 -3 -3 -3 -3 -3 -3 -3 -3 -3 -3 -3 -3 -3 -3 -3 -3 -3 -4
-2 -2 -2 -3 -3 -3 -3 -2 -2 -3 -3 -3 -3 -3 -3 -3 -3 -3 -3 -3 -3 -3 -3 -3 -3 -3 -3 -3 -3 -3 -3 -3 -4 -4 -4 -4 -4 -4 -4 -4 -4 -4 -4
-3 -3 -3 -3 -3 -3 -3 -3 -3 -3 -3 -3 -3 -4 -4 -4 -4 -3 -3 -3 -3 -3 -3 -4 -4 -4 -4 -4 -4 -4 -4 -4 -4 -4 -4 -4 -4 -4 -4 -4 -4 -4 -4
-3 -3 -3 -3 -3 -4 -4 -4 -4 -4 -4 -4 -4 -4 -4 -4 -4 -4 -4 -4 -4 -4 -4 -4 -4 -4 -4 -4 -4 -4 -5 -5 -5 -5 -4 -4 -4 -4 -5 -5 -5 -5 -5
-4 -4 -4 -4 -4 -4 -4 -4 -4 -4 -4 -4 -4 -4 -4 -4 -4 -4 -4 -4 -4 -4 -4 -4 -5 -5 -5 -5 -5 -5 -5 -5 -5 -5 -5 -5 -5 -5 -5 -5 -5 -5 -5
-4 -4 -4 -4 -4 -4 -5 -5 -5 -5 -5 -5 -5 -5 -5 -5 -5 -5 -5 -5 -5 -5 -5 -5 -5 -5 -5 -5 -5 -5 -5 -5 -5 -5 -5 -5 -5 -5 -5 -5 -6 -6 -6
-4 -4 -5 -5 -5 -5 -5 -5 -5 -5 -5 -5 -5 -5 -5 -5 -5 -5 -5 -5 -5 -5 -5 -5 -5 -5 -5 -5 -6 -6 -6 -6 -6 -6 -6 -6 -6 -6 -6 -6 -6 -6 -6
-4 -5 -5 -5 -5 -5 -5 -5 -5 -5 -5 -5 -5 -5 -5 -5 -5 -5 -5 -5 -5 -5 -5 -5 -6 -6 -6 -6 -6 -6 -6 -6 -6 -6 -6 -6 -6 -6 -6 -6 -6 -7 -7
-5 -5 -5 -5 -5 -5 -6 -6 -6 -6 -6 -6 -6 -6 -5 -5 -5 -5 -5 -5 -6 -6 -6 -6 -6 -6 -6 -6 -6 -6 -6 -7 -7 -7 -7 -7 -7 -7 -7 -7 -7 -7 -7
-5 -5 -6 -6 -6 -6 -6 -6 -6 -6 -6 -6 -6 -6 -6 -6 -6 -6 -6 -6 -6 -6 -6 -6 -6 -6 -6 -6 -7 -7 -7 -7 -7 -7 -7 -7 -7 -7 -7 -7 -7 -7 -7
-6 -6 -6 -6 -6 -6 -6 -6 -6 -6 -6 -6 -6 -6 -6 -6 -6 -6 -6 -6 -6 -6 -6 -6 -7 -7 -7 -7 -7 -7 -7 -7 -7 -7 -7 -7 -7 -7 -7 -7 -7 -8 -8
-6 -6 -6 -6 -6 -6 -6 -6 -6 -6 -6 -6 -6 -6 -6 -6 -6 -6 -6 -6 -6 -6 -7 -7 -7 -7 -7 -7 -7 -7 -7 -7 -7 -7 -7 -7 -7 -7 -7 -8 -8 -8 -8
Wind_Speed
2 2 2 3 2 3 3 4 5 5 5 5 5 4 4 4 4 4 5 4 5 4 4 5 5 4 4 4 4 4 4 4 6 5 3 2 3 4 4 4 5 5 6
2 2 2 3 3 3 4 4 5 5 5 5 5 5 5 5 5 5 5 5 5 6 6 5 6 4 5 4 4 5 4 4 4 6 3 3 4 4 3 3 3 4 4
2 2 3 3 3 4 4 5 5 5 4 4 4 5 5 5 6 6 5 5 6 6 6 6 6 5 6 5 5 5 4 4 3 4 4 3 3 2 2 3 3 2 3
2 2 3 3 3 4 4 4 4 4 4 4 5 5 6 6 6 6 5 5 5 5 6 6 6 7 7 7 6 6 5 4 4 4 4 3 2 2 1 2 3 2 3
2 3 3 3 3 3 4 4 4 4 4 4 4 5 5 5 5 5 4 4 5 5 5 6 7 8 9 8 6 5 5 5 4 4 4 3 3 2 3 2 3 2 3
2 3 3 3 3 3 3 4 4 4 4 4 4 5 5 5 7 7 5 4 4 5 6 6 6 7 8 9 10 9 7 7 6 5 5 5 6 4 3 3 3 2 3
3 4 3 3 3 3 3 4 4 4 4 4 4 5 6 6 7 7 6 4 4 5 5 5 5 6 7 6 8 8 8 10 9 7 7 7 6 6 5 4 4 3 4
3 4 4 3 4 3 4 4 4 4 4 4 5 5 5 6 7 7 6 4 4 5 5 5 5 5 5 5 5 5 6 6 7 7 7 6 5 5 6 5 4 2 2
4 4 4 4 4 4 4 5 4 4 4 4 5 5 5 6 7 7 6 4 4 5 5 4 5 5 6 6 5 5 5 4 4 4 4 4 5 5 4 3 2 2 2
4 4 4 4 4 4 5 4 4 4 4 4 4 4 5 5 7 7 5 3 3 3 3 4 5 5 5 5 4 4 5 4 2 2 2 3 3 4 5 4 4 4 2
4 3 3 4 4 4 4 3 3 3 3 4 4 4 5 5 6 7 6 3 3 3 3 3 4 5 5 5 4 4 5 3 2 3 2 2 2 2 2 2 3 4 3
3 3 3 3 3 3 3 3 3 3 3 3 4 4 4 4 5 5 6 5 4 3 3 3 3 5 5 4 3 3 2 1 1 2 2 2 2 2 1 1 1 2 3
2 3 3 3 2 2 3 3 2 2 2 3 3 3 3 3 3 5 5 5 5 3 3 4 4 4 3 2 3 2 2 1 2 2 3 3 2 2 1 1 1 1 1
2 3 3 3 2 2 2 2 2 3 3 3 3 3 3 2 2 2 2 3 3 3 2 3 3 2 2 1 1 2 1 2 2 3 2 1 1 1 1 1 0 0 1
3 3 3 2 2 2 2 2 3 3 3 3 3 3 3 3 4 4 2 2 2 2 1 0 0 0 1 1 1 1 1 1 1 1 2 1 1 1 1 1 0 0 0
3 3 2 2 2 2 2 3 4 4 5 5 5 4 4 4 5 5 4 3 2 2 1 1 1 2 2 2 2 1 1 1 1 1 2 2 2 2 1 0 0 1 1
3 3 2 2 2 2 2 2 4 5 5 5 5 5 5 4 4 4 3 3 3 2 1 2 2 2 2 2 2 2 1 1 1 2 2 2 2 1 1 1 1 1 1
3 3 3 2 2 2 2 2 2 3 4 4 4 5 5 4 4 3 2 1 1 1 1 2 2 2 2 2 2 1 1 1 1 1 1 2 2 2 2 2 2 1 1
3 2 2 2 2 2 2 2 2 3 3 3 3 4 5 4 3 2 1 1 1 2 1 2 2 2 2 1 1 1 1 1 1 1 1 1 2 2 1 1 2 2 1
2 4 3 2 2 2 2 2 2 3 3 3 3 3 3 2 1 1 1 1 1 2 1 1 1 2 2 2 1 1 1 1 1 1 1 1 1 1 2 2 2 1 1
2 3 4 2 2 2 2 2 2 2 3 3 3 4 4 2 1 2 1 1 1 2 2 2 2 2 2 2 2 2 2 2 1 1 1 1 1 1 1 1 1 1 1
2 2 2 2 2 2 2 2 2 2 3 3 3 4 5 2 2 2 2 2 2 2 2 2 2 2 2 2 2 2 2 2 2 2 2 1 1 1 1 1 1 1 1
2 2 2 2 2 3 3 2 2 2 3 3 3 3 2 2 2 2 2 2 1 1 1 1 2 1 2 2 3 3 3 3 3 3 2 2 2 2 1 1 1 1 1
2 2 3 3 2 2 3 3 3 3 3 3 3 3 2 2 2 2 2 2 1 1 1 1 2 2 2 2 3 3 4 4 4 4 4 3 2 2 2 1 1 1 1
2 2 2 2 3 3 3 3 3 3 3 3 3 3 2 2 2 2 2 1 1 1 1 1 2 3 3 3 3 3 4 4 4 4 4 3 3 3 2 2 2 1 1
2 3 3 3 3 3 3 3 3 3 3 3 3 3 3 2 2 2 1 1 1 1 1 1 2 2 3 3 4 4 4 4 4 4 4 3 3 3 2 2 2 2 2
Wind_Direction
236 234 234 244 249 247 257 266 263 257 252 245 246 248 250 252 253 252 251 248 248 256 256 249 250 250 254 254 250 244 243 240 254 272 268 260 255 252 262 249 243 238 238
253 251 251 252 254 256 258 264 264 258 256 250 247 247 250 252 250 246 252 253 245 248 251 248 251 249 248 251 249 246 243 239 244 265 273 269 260 252 245 248 258 250 243
260 259 262 256 251 256 260 266 264 261 265 260 248 247 248 248 248 247 246 244 248 249 248 247 249 244 248 252 251 245 242 243 241 248 260 271 271 266 273 275 273 266 261
266 268 270 266 260 260 265 263 265 260 259 259 257 252 249 247 246 248 248 245 250 254 251 246 245 243 244 246 249 244 238 234 235 240 249 254 256 260 247 258 274 279 278
257 260 263 265 266 272 279 276 270 260 262 259 261 264 259 248 245 252 246 246 250 258 261 256 250 251 251 248 250 242 232 230 231 236 240 246 239 237 239 248 246 273 277
248 256 267 272 270 275 285 285 273 266 266 262 257 259 260 262 271 267 259 247 251 254 262 262 260 255 258 257 255 249 238 232 228 230 238 236 240 236 238 237 234 245 268
244 258 261 263 265 268 278 283 270 262 266 265 258 256 258 264 270 270 268 255 251 251 254 258 264 264 263 255 256 253 250 248 239 230 231 234 234 226 218 226 229 240 256
254 260 263 267 269 264 265 269 267 263 257 254 257 259 261 265 270 270 269 252 250 251 251 249 253 261 264 262 252 251 251 250 245 240 234 234 231 220 216 221 225 248 274
261 258 262 260 260 258 262 264 266 260 256 255 256 255 259 267 268 268 266 243 249 255 258 257 258 255 266 265 256 251 253 262 262 246 241 233 223 217 195 173 181 198 254
265 262 259 256 249 251 252 260 266 261 260 259 262 256 255 259 267 266 264 240 251 259 264 263 266 272 268 265 242 233 238 240 225 232 238 237 220 203 194 192 193 201 224
280 283 275 259 248 254 254 256 259 263 262 260 262 262 255 258 264 262 254 233 233 248 258 266 268 273 272 270 257 238 240 232 209 207 217 219 214 213 209 207 201 201 213
301 298 291 282 261 264 247 256 259 259 265 269 267 273 267 264 267 262 257 248 247 242 254 262 267 271 272 273 270 258 235 219 186 193 201 212 213 223 232 218 223 234 236
309 303 301 297 280 269 250 249 261 253 257 269 269 272 277 273 273 276 266 256 254 255 254 263 273 271 265 261 260 236 217 208 191 200 213 225 226 211 177 144 82 55 16
301 306 309 303 303 301 288 264 256 251 256 266 267 271 278 274 268 264 251 255 258 266 260 264 271 274 275 249 222 238 243 225 204 207 219 226 194 178 175 157 147 53 26
298 303 306 306 305 316 312 300 284 270 266 264 261 255 258 267 271 272 260 243 228 233 233 243 140 232 246 240 226 225 221 212 217 200 185 186 195 188 184 149 166 179 210
298 305 304 307 307 309 315 325 326 315 314 305 298 288 282 280 278 274 267 256 240 214 178 173 208 227 229 230 230 252 254 232 220 200 189 187 195 190 180 178 161 184 215
288 294 295 298 297 300 304 310 318 327 327 319 312 304 296 295 293 281 266 244 225 209 193 194 219 236 245 239 228 232 256 250 225 197 186 192 191 181 172 187 201 217 241
292 291 295 288 291 293 299 305 305 309 316 320 316 311 308 305 306 301 278 235 238 244 212 207 222 233 235 232 227 226 229 234 212 200 190 194 189 181 184 193 199 207 223
294 297 295 294 295 300 307 308 304 302 306 314 324 319 310 305 306 308 304 255 230 241 242 229 224 225 229 228 223 215 212 218 221 211 202 199 190 178 186 198 197 196 194
291 301 310 307 307 311 307 304 302 303 307 311 311 312 323 328 319 325 323 297 247 251 243 234 231 223 217 211 211 208 208 213 215 215 198 195 190 180 182 186 188 187 195
292 297 304 311 303 294 290 288 290 297 305 308 308 313 322 321 293 291 284 270 259 258 247 227 222 218 211 206 202 202 206 218 221 226 200 180 169 174 180 180 181 181 169
286 289 291 287 287 285 289 289 291 292 292 296 309 315 319 331 314 300 292 283 274 265 247 220 217 213 210 207 201 200 207 215 215 207 200 183 172 167 162 166 160 163 163
277 279 285 289 289 290 295 293 287 285 287 291 299 307 313 310 299 294 290 289 286 279 254 215 212 218 211 210 207 205 207 213 214 201 196 187 183 185 179 177 175 166 164
265 271 276 283 287 283 282 284 285 285 285 287 289 291 291 289 288 285 285 288 287 281 251 221 212 209 210 212 212 215 213 208 204 197 193 189 191 193 183 176 177 175 176
259 265 269 273 278 280 283 285 286 285 286 285 284 286 286 285 286 285 288 281 266 263 254 235 216 209 209 211 213 215 216 214 210 197 185 185 184 187 181 173 171 164 167
252 260 267 270 271 272 273 278 280 281 279 281 282 282 280 280 283 279 275 268 270 272 264 246 230 224 218 217 220 217 215 216 209 200 182 177 177 180 172 172 167 166 167
Height
1471 1471 1471 1471 1471 1471 1471 1471 1471 1471 1471 1471 1471 1471 1471 1472 1473 1473 1473 1474 1474 1475 1475 1475 1475 1476 1476 1477 1477 1477 1477 1477 1475 1474 1475 1476 1475 1475 1475 1475 1474 1474 1473
1467 1467 1467 1467 1466 1466 1466 1466 1466 1466 1466 1466 1466 1466 1466 1467 1467 1468 1468 1469 1469 1469 1469 1470 1470 1471 1471 1471 1472 1471 1472 1471 1471 1469 1469 1469 1469 1469 1469 1469 1469 1468 1467
1463 1463 1463 1462 1462 1461 1461 1461 1461 1461 1461 1461 1461 1461 1461 1462 1462 1463 1463 1463 1463 1464 1464 1464 1464 1465 1465 1465 1466 1466 1466 1466 1466 1465 1463 1464 1464 1464 1464 1463 1463 1463 1462
1459 1459 1458 1457 1457 1457 1456 1456 1456 1456 1456 1456 1456 1456 1456 1456 1457 1458 1458 1458 1458 1458 1459 1459 1459 1459 1459 1459 1460 1460 1460 1460 1460 1459 1459 1459 1459 1459 1458 1458 1457 1457 1456
1456 1455 1454 1454 1453 1453 1452 1451 1451 1451 1451 1451 1451 1451 1452 1452 1452 1453 1453 1453 1453 1453 1453 1453 1453 1453 1453 1454 1454 1454 1454 1454 1454 1454 1453 1453 1453 1453 1453 1453 1451 1450 1450
1452 1451 1451 1450 1449 1448 1447 1447 1447 1447 1447 1447 1447 1447 1447 1447 1447 1448 1448 1448 1447 1447 1447 1447 1447 1447 1448 1448 1448 1448 1449 1449 1448 1448 1447 1447 1447 1448 1448 1448 1447 1445 1444
1448 1447 1447 1446 1445 1445 1444 1444 1444 1443 1442 1443 1442 1442 1442 1442 1442 1443 1443 1443 1442 1442 1442 1442 1442 1442 1442 1441 1441 1442 1442 1442 1443 1443 1442 1441 1442 1442 1442 1442 1441 1440 1440
1443 1443 1443 1442 1442 1441 1441 1440 1440 1439 1438 1438 1438 1437 1437 1437 1437 1438 1438 1438 1437 1437 1437 1436 1436 1436 1436 1436 1435 1435 1435 1435 1436 1436 1436 1436 1437 1437 1437 1437 1437 1436 1436
1439 1438 1438 1438 1438 1437 1437 1436 1435 1435 1434 1433 1433 1433 1432 1432 1432 1432 1433 1432 1432 1432 1431 1431 1431 1431 1431 1430 1430 1429 1429 1429 1430 1430 1431 1431 1432 1432 1432 1432 1431 1431 1429
1435 1434 1434 1434 1434 1433 1433 1432 1431 1430 1430 1429 1429 1429 1428 1427 1427 1428 1428 1427 1427 1426 1426 1426 1426 1425 1425 1425 1424 1423 1423 1423 1424 1424 1425 1426 1426 1426 1427 1427 1426 1426 1425
1432 1431 1431 1430 1430 1429 1429 1428 1427 1427 1426 1425 1425 1424 1424 1423 1423 1423 1423 1423 1422 1421 1421 1420 1421 1421 1420 1420 1419 1419 1418 1419 1419 1419 1420 1420 1421 1421 1421 1422 1422 1422 1422
1428 1428 1427 1426 1426 1426 1425 1424 1424 1423 1422 1421 1420 1419 1419 1419 1418 1418 1418 1418 1418 1417 1416 1416 1416 1416 1416 1415 1415 1414 1414 1415 1415 1415 1415 1415 1416 1416 1417 1417 1418 1418 1418
1426 1425 1424 1423 1423 1422 1421 1420 1420 1419 1418 1417 1416 1415 1414 1414 1414 1414 1414 1413 1413 1412 1412 1412 1412 1412 1411 1410 1410 1410 1410 1410 1410 1410 1410 1411 1412 1413 1413 1413 1413 1413 1413
1423 1422 1421 1420 1419 1419 1418 1417 1416 1415 1414 1413 1412 1411 1410 1410 1409 1409 1409 1409 1408 1408 1408 1408 1408 1407 1407 1406 1406 1406 1406 1406 1406 1406 1407 1408 1409 1409 1409 1409 1409 1409 1409
1421 1420 1419 1418 1417 1416 1415 1414 1413 1412 1411 1410 1409 1408 1407 1406 1406 1406 1405 1405 1404 1404 1404 1403 1403 1403 1402 1402 1402 1402 1403 1403 1403 1403 1404 1404 1405 1405 1405 1406 1406 1406 1405
1418 1417 1416 1415 1414 1413 1412 1411 1410 1409 1408 1407 1406 1406 1404 1404 1403 1402 1402 1401 1401 1401 1401 1399 1399 1399 1398 1398 1398 1398 1399 1400 1400 1400 1400 1401 1401 1401 1402 1402 1403 1402 1402
1417 1416 1415 1413 1412 1411 1410 1408 1407 1406 1405 1404 1403 1402 1401 1400 1400 1399 1398 1398 1398 1398 1397 1396 1396 1396 1396 1395 1395 1395 1396 1396 1397 1397 1397 1398 1399 1399 1399 1399 1400 1399 1399
1415 1414 1413 1412 1410 1409 1408 1406 1405 1403 1401 1400 1400 1399 1398 1397 1396 1396 1395 1395 1394 1394 1394 1393 1393 1393 1393 1393 1393 1393 1393 1393 1394 1394 1395 1395 1396 1396 1396 1396 1397 1397 1396
1413 1412 1411 1410 1409 1407 1406 1405 1403 1401 1400 1398 1397 1396 1395 1394 1394 1393 1392 1392 1391 1391 1391 1391 1391 1391 1391 1391 1391 1391 1391 1391 1391 1392 1392 1392 1393 1393 1393 1394 1394 1394 1394
1411 1410 1409 1408 1407 1405 1404 1403 1401 1400 1398 1396 1395 1394 1393 1392 1391 1390 1390 1389 1389 1388 1388 1388 1389 1389 1389 1389 1389 1388 1388 1388 1389 1389 1389 1390 1390 1391 1391 1391 1391 1391 1391
1409 1408 1407 1406 1405 1403 1402 1401 1399 1398 1396 1395 1393 1393 1392 1390 1389 1388 1388 1387 1387 1387 1387 1386 1386 1386 1387 1387 1386 1386 1386 1386 1387 1387 1387 1388 1388 1389 1389 1389 1390 1390 1389
1407 1406 1405 1403 1402 1401 1400 1399 1397 1396 1394 1393 1392 1391 1390 1388 1387 1387 1386 1386 1385 1385 1385 1385 1384 1384 1384 1384 1384 1384 1384 1384 1385 1385 1386 1386 1387 1387 1388 1388 1388 1388 1388
1404 1403 1402 1401 1400 1399 1398 1396 1395 1394 1392 1391 1390 1388 1387 1386 1385 1385 1384 1384 1383 1383 1383 1383 1382 1382 1382 1382 1382 1382 1382 1383 1383 1384 1384 1385 1385 1386 1386 1386 1386 1386 1386
1402 1400 1399 1398 1397 1396 1395 1394 1392 1391 1390 1389 1387 1386 1385 1384 1383 1383 1382 1382 1381 1381 1381 1380 1380 1380 1380 1380 1380 1380 1381 1381 1382 1382 1383 1383 1384 1384 1384 1385 1385 1385 1386
1399 1398 1396 1395 1394 1393 1392 1391 1390 1388 1387 1386 1385 1384 1383 1382 1381 1381 1380 1380 1379 1379 1379 1379 1378 1378 1378 1378 1378 1379 1379 1380 1380 1381 1381 1382 1382 1383 1383 1383 1384 1384 1384
1395 1394 1393 1392 1391 1390 1389 1388 1387 1386 1385 1384 1383 1382 1381 1380 1379 1379 1378 1378 1378 1377 1377 1377 1377 1377 1377 1377 1377 1377 1378 1378 1379 1379 1380 1380 1381 1381 1381 1382 1382 1382 1383